Etusivu
METAR-TAF:

METAR-TAF

Lentoasemat :

Kerrville Municipal Airport (Louis Schreiner Field)

Kerrville, Texas, Yhdysvallat

Leveyspiiri: 29-58N, Pituuspiiri: 099-05W, korkeus merenpinnasta: 493 m

Tämänhetkinen sää

Tämä raportti tehtiin 28 minuuttia sitten, kello 18.15 UTC
Tuuli 6 kn pohjoisesta/koillisesta
Lämpötila 14°C
Kosteus 72%
Ilmanpaine 1020 hPa
Näkyvyys: 16.1 km
Pilvistä 1700 ft:n korkeudessa

METAR: KERV 251815Z AUTO 02006KT 10SM OVC017 14/09 A3012 RMK AO2 T01350090

Aika: 12:43 (18:43 UTC)


TAF: puuttuu

Säähavainnot ja -ennusteet yli 4000 lentoasemalta (METAR- ja TAF-raportit).

Käytössä olevat sääasemat on merkitty karttaan keltaisilla ja punaisilla pisteillä.

Aseta hiiri pisteen päälle nähdäksesi sääaseman nimen.

Klikkaa sitten nähdäksesi säähavainnot ja -ennusteet.

Kartan vaihtaminen: klikkaa mustalla rastilla varustettuja vihreitä pisteitä, niin voit zoomata sisään; viivalla varustettua vihreää pistettä, niin voit zoomata ulos tai vihreitä nuolia, niin pääset viereisille kartoille.


METAR-TAF: